SWR1182 EDDF-EGLL

Flight info

Callsign SWR1182
Flight time 1h 12m
Altitude 34000
Route OBOKA5S/18 OBOKA Z29 TORNU DCT ABNED L980 LOGAN LOGAN2H
Aircraft A321/M-SDE3FGHIRWY/S

Departure

Time 2026-04-17 12:43
Airport Frankfurt Main Airport (EDDF)

Arrival

Time 2026-04-17 13:56
Airport London Heathrow Airport (EGLL)
Time Latitude Longitude Altitude Speed Heading
2026-04-17 12:20 50.03842 8.54695 349 ft 0 kts 160°
2026-04-17 12:37 50.03792 8.54723 349 ft 6 kts 167°
2026-04-17 12:37 50.03749 8.54698 348 ft 7 kts 232°
2026-04-17 12:38 50.03727 8.54619 348 ft 8 kts 249°
2026-04-17 12:38 50.03705 8.54524 347 ft 10 kts 252°
2026-04-17 12:38 50.03682 8.54416 347 ft 11 kts 251°
2026-04-17 12:38 50.03654 8.54297 346 ft 12 kts 249°
2026-04-17 12:39 50.03621 8.54168 345 ft 13 kts 249°
2026-04-17 12:39 50.03588 8.54031 344 ft 14 kts 250°
2026-04-17 12:39 50.03554 8.53885 344 ft 14 kts 250°
2026-04-17 12:39 50.03518 8.53731 343 ft 15 kts 250°
2026-04-17 12:40 50.03480 8.53576 342 ft 15 kts 249°
2026-04-17 12:40 50.03441 8.53416 342 ft 15 kts 249°
2026-04-17 12:40 50.03403 8.53260 341 ft 15 kts 250°
2026-04-17 12:40 50.03365 8.53106 341 ft 12 kts 249°
2026-04-17 12:41 50.03340 8.52996 340 ft 10 kts 251°
2026-04-17 12:41 50.03324 8.52924 340 ft 0 kts 250°
2026-04-17 12:41 50.03320 8.52908 340 ft 3 kts 250°
2026-04-17 12:41 50.03316 8.52895 340 ft 0 kts 250°
2026-04-17 12:42 50.03303 8.52838 340 ft 11 kts 250°
2026-04-17 12:42 50.03276 8.52718 339 ft 12 kts 250°
2026-04-17 12:42 50.03223 8.52623 339 ft 13 kts 206°
2026-04-17 12:42 50.02951 8.52593 338 ft 73 kts 181°
2026-04-17 12:43 50.02199 8.52606 336 ft 140 kts 180°
2026-04-17 12:43 50.01031 8.52620 394 ft 188 kts 180°
2026-04-17 12:43 49.99670 8.52618 890 ft 200 kts 180°
2026-04-17 12:43 49.98231 8.52538 1401 ft 215 kts 193°
2026-04-17 12:44 49.96915 8.51371 1990 ft 224 kts 225°
2026-04-17 12:44 49.95822 8.49614 2578 ft 235 kts 226°
2026-04-17 12:44 49.94647 8.47751 3176 ft 245 kts 225°
2026-04-17 12:44 49.93422 8.45861 3718 ft 257 kts 225°
2026-04-17 12:45 49.92089 8.43842 3974 ft 279 kts 224°
2026-04-17 12:45 49.90704 8.41762 3969 ft 268 kts 224°
2026-04-17 12:45 49.89384 8.39789 3974 ft 263 kts 224°
2026-04-17 12:45 49.88078 8.37758 3972 ft 263 kts 231°
2026-04-17 12:46 49.87312 8.35210 3966 ft 263 kts 261°
2026-04-17 12:46 49.87417 8.32384 3975 ft 265 kts 287°
2026-04-17 12:46 49.88265 8.29879 3987 ft 265 kts 303°
2026-04-17 12:46 49.89301 8.27477 4085 ft 270 kts 303°
2026-04-17 12:47 49.90332 8.25071 4748 ft 271 kts 303°
2026-04-17 12:47 49.91357 8.22635 5553 ft 269 kts 302°
2026-04-17 12:47 49.92365 8.20216 6232 ft 270 kts 302°
2026-04-17 12:47 49.93393 8.17761 6869 ft 273 kts 304°
2026-04-17 12:48 49.94607 8.15452 7490 ft 275 kts 313°
2026-04-17 12:48 49.96001 8.13426 8093 ft 278 kts 318°
2026-04-17 12:48 49.97469 8.11465 8682 ft 280 kts 319°
2026-04-17 12:48 49.98949 8.09510 9247 ft 282 kts 319°
2026-04-17 12:49 50.00449 8.07523 9792 ft 285 kts 319°
2026-04-17 12:49 50.01967 8.05505 10305 ft 288 kts 319°
2026-04-17 12:49 50.03529 8.03420 10565 ft 301 kts 319°
2026-04-17 12:49 50.05137 8.01267 10789 ft 313 kts 319°
2026-04-17 12:50 50.06815 7.99017 11045 ft 322 kts 318°
2026-04-17 12:50 50.08503 7.96754 11465 ft 325 kts 319°
2026-04-17 12:50 50.10221 7.94446 11917 ft 327 kts 318°
2026-04-17 12:50 50.11968 7.92096 12359 ft 328 kts 318°
2026-04-17 12:51 50.13685 7.89783 12776 ft 330 kts 318°
2026-04-17 12:51 50.15420 7.87443 13184 ft 332 kts 318°
2026-04-17 12:51 50.17184 7.85063 13619 ft 333 kts 318°
2026-04-17 12:51 50.18915 7.82723 14132 ft 330 kts 318°
2026-04-17 12:52 50.20640 7.80390 14672 ft 327 kts 318°
2026-04-17 12:52 50.22348 7.78080 15220 ft 323 kts 318°
2026-04-17 12:52 50.24055 7.75834 15760 ft 320 kts 321°
2026-04-17 12:52 50.25859 7.73843 16301 ft 318 kts 325°
2026-04-17 12:53 50.27768 7.72171 16846 ft 315 kts 333°
2026-04-17 12:53 50.29758 7.70800 17398 ft 312 kts 335°
2026-04-17 12:53 50.31751 7.69480 17952 ft 308 kts 335°
2026-04-17 12:53 50.33714 7.68167 18502 ft 304 kts 334°
2026-04-17 12:54 50.35632 7.66866 19056 ft 299 kts 334°
2026-04-17 12:54 50.37540 7.65563 19506 ft 299 kts 334°
2026-04-17 12:54 50.39438 7.64261 19881 ft 300 kts 334°
2026-04-17 12:54 50.41357 7.62944 20239 ft 302 kts 334°
2026-04-17 12:55 50.43278 7.61623 20564 ft 305 kts 334°
2026-04-17 12:55 50.45214 7.60289 20890 ft 307 kts 334°
2026-04-17 12:55 50.47187 7.58928 21214 ft 309 kts 334°
2026-04-17 12:55 50.49145 7.57579 21534 ft 311 kts 334°
2026-04-17 12:56 50.51127 7.56210 21845 ft 312 kts 334°
2026-04-17 12:56 50.53121 7.54833 22143 ft 314 kts 334°
2026-04-17 12:56 50.55101 7.53370 22436 ft 315 kts 330°
2026-04-17 12:56 50.57033 7.51691 22724 ft 316 kts 327°
2026-04-17 12:57 50.58892 7.49846 22995 ft 318 kts 325°
2026-04-17 12:57 50.60746 7.47948 23246 ft 320 kts 325°
2026-04-17 12:57 50.62621 7.46022 23504 ft 322 kts 325°
2026-04-17 12:57 50.64494 7.44099 23771 ft 323 kts 325°
2026-04-17 12:58 50.66380 7.42160 24037 ft 325 kts 325°
2026-04-17 12:58 50.68277 7.40211 24293 ft 326 kts 325°
2026-04-17 12:58 50.70192 7.38243 24550 ft 327 kts 325°
2026-04-17 12:58 50.72096 7.36282 24783 ft 328 kts 324°
2026-04-17 12:59 50.73852 7.34001 25028 ft 326 kts 312°
2026-04-17 12:59 50.75276 7.31237 25244 ft 326 kts 302°
2026-04-17 12:59 50.76389 7.28134 25467 ft 327 kts 296°
2026-04-17 12:59 50.77433 7.24922 25686 ft 328 kts 296°
2026-04-17 13:00 50.78459 7.21733 26043 ft 324 kts 296°
2026-04-17 13:00 50.79486 7.18550 26305 ft 324 kts 296°
2026-04-17 13:00 50.80513 7.15375 26415 ft 328 kts 296°
2026-04-17 13:00 50.81571 7.12107 26517 ft 331 kts 296°
2026-04-17 13:01 50.82610 7.08897 26619 ft 335 kts 296°
2026-04-17 13:01 50.83685 7.05570 26714 ft 338 kts 296°
2026-04-17 13:01 50.84750 7.02273 26805 ft 341 kts 296°
2026-04-17 13:01 50.85836 6.98910 26893 ft 344 kts 296°
2026-04-17 13:02 50.86926 6.95533 26983 ft 347 kts 296°
2026-04-17 13:02 50.88034 6.92094 27061 ft 349 kts 296°
2026-04-17 13:02 50.89130 6.88692 27138 ft 352 kts 296°
2026-04-17 13:02 50.90251 6.85205 27214 ft 354 kts 296°
2026-04-17 13:03 50.91375 6.81706 27272 ft 357 kts 296°
2026-04-17 13:03 50.92507 6.78172 27324 ft 359 kts 296°
2026-04-17 13:03 50.93637 6.74639 27376 ft 361 kts 296°
2026-04-17 13:03 50.94771 6.71093 27416 ft 364 kts 296°
2026-04-17 13:04 50.95927 6.67469 27445 ft 366 kts 296°
2026-04-17 13:04 50.97075 6.63864 27467 ft 369 kts 296°
2026-04-17 13:04 50.98230 6.60232 27479 ft 371 kts 296°
2026-04-17 13:04 50.99395 6.56564 27482 ft 373 kts 296°
2026-04-17 13:05 51.00569 6.52866 27479 ft 376 kts 296°
2026-04-17 13:05 51.01754 6.49120 27465 ft 378 kts 296°
2026-04-17 13:05 51.02935 6.45383 27439 ft 381 kts 296°
2026-04-17 13:05 51.04140 6.41564 27407 ft 383 kts 296°
2026-04-17 13:06 51.05329 6.37789 27363 ft 385 kts 296°
2026-04-17 13:06 51.06536 6.33953 27316 ft 388 kts 295°
2026-04-17 13:06 51.07745 6.30104 27262 ft 390 kts 295°
2026-04-17 13:06 51.08958 6.26234 27212 ft 392 kts 295°
2026-04-17 13:07 51.10169 6.22365 27229 ft 393 kts 295°
2026-04-17 13:07 51.11377 6.18500 27624 ft 383 kts 295°
2026-04-17 13:07 51.12528 6.14764 28227 ft 369 kts 294°
2026-04-17 13:07 51.13522 6.11075 28836 ft 355 kts 290°
2026-04-17 13:08 51.14344 6.07435 29446 ft 342 kts 287°
2026-04-17 13:08 51.15018 6.03831 29708 ft 339 kts 285°
2026-04-17 13:08 51.15620 6.00174 29734 ft 342 kts 284°
2026-04-17 13:09 51.16817 5.92786 29834 ft 346 kts 284°
2026-04-17 13:09 51.17406 5.89139 30222 ft 337 kts 284°
2026-04-17 13:09 51.18013 5.85559 30494 ft 334 kts 287°
2026-04-17 13:10 51.19619 5.78517 30518 ft 340 kts 292°
2026-04-17 13:10 51.21467 5.71518 30541 ft 345 kts 292°
2026-04-17 13:10 51.22403 5.67971 30753 ft 342 kts 292°
2026-04-17 13:11 51.23325 5.64473 30734 ft 345 kts 292°
2026-04-17 13:11 51.25206 5.57318 31190 ft 353 kts 292°
2026-04-17 13:11 51.26155 5.53698 31547 ft 354 kts 292°
2026-04-17 13:12 51.27113 5.50036 31908 ft 354 kts 292°
2026-04-17 13:12 51.29008 5.42777 32603 ft 354 kts 292°
2026-04-17 13:12 51.29955 5.39141 32813 ft 357 kts 292°
2026-04-17 13:13 51.30902 5.35499 33013 ft 360 kts 292°
2026-04-17 13:13 51.31868 5.31774 33244 ft 363 kts 291°
2026-04-17 13:13 51.32841 5.28019 33514 ft 364 kts 291°
2026-04-17 13:13 51.33815 5.24256 33785 ft 365 kts 291°
2026-04-17 13:14 51.34772 5.20551 34144 ft 364 kts 291°
2026-04-17 13:14 51.35757 5.16733 34172 ft 371 kts 291°
2026-04-17 13:14 51.37746 5.09000 34178 ft 385 kts 291°
2026-04-17 13:15 51.39818 5.00918 34178 ft 398 kts 291°
2026-04-17 13:15 51.41957 4.92549 34174 ft 409 kts 291°
2026-04-17 13:16 51.44121 4.84047 34182 ft 413 kts 291°
2026-04-17 13:16 51.46285 4.75507 34181 ft 413 kts 291°
2026-04-17 13:17 51.48448 4.66940 34182 ft 413 kts 291°
2026-04-17 13:17 51.50600 4.58386 34184 ft 413 kts 291°
2026-04-17 13:18 51.52730 4.49884 34186 ft 413 kts 291°
2026-04-17 13:18 51.54870 4.41309 34188 ft 413 kts 291°
2026-04-17 13:19 51.57006 4.32719 34189 ft 413 kts 290°
2026-04-17 13:19 51.59129 4.24148 34189 ft 413 kts 290°
2026-04-17 13:20 51.61261 4.15505 34190 ft 414 kts 290°
2026-04-17 13:20 51.63366 4.06941 34189 ft 414 kts 290°
2026-04-17 13:21 51.65476 3.98322 34190 ft 414 kts 289°
2026-04-17 13:21 51.67577 3.89700 34193 ft 414 kts 289°
2026-04-17 13:22 51.69660 3.81121 34193 ft 414 kts 289°
2026-04-17 13:22 51.71749 3.72490 34098 ft 415 kts 289°
2026-04-17 13:23 51.72801 3.68129 33813 ft 415 kts 289°
2026-04-17 13:23 51.73843 3.63800 33538 ft 416 kts 289°
2026-04-17 13:23 51.74874 3.59505 33266 ft 416 kts 289°
2026-04-17 13:23 51.75919 3.55149 32991 ft 417 kts 289°
2026-04-17 13:24 51.76961 3.50792 32717 ft 418 kts 289°
2026-04-17 13:24 51.78001 3.46430 32443 ft 419 kts 289°
2026-04-17 13:24 51.79055 3.42006 32165 ft 420 kts 289°
2026-04-17 13:24 51.80094 3.37643 31888 ft 413 kts 289°
2026-04-17 13:25 51.81107 3.33376 31620 ft 411 kts 288°
2026-04-17 13:25 51.82137 3.29021 31342 ft 411 kts 288°
2026-04-17 13:25 51.83154 3.24704 31068 ft 411 kts 287°
2026-04-17 13:25 51.83956 3.20300 30793 ft 410 kts 280°
2026-04-17 13:26 51.84390 3.15783 30522 ft 409 kts 273°
2026-04-17 13:26 51.84466 3.11191 30241 ft 409 kts 266°
2026-04-17 13:26 51.84242 3.06626 29980 ft 409 kts 263°
2026-04-17 13:26 51.83955 3.02067 29712 ft 408 kts 263°
2026-04-17 13:27 51.83658 2.97544 29447 ft 409 kts 263°
2026-04-17 13:27 51.83349 2.92917 29186 ft 411 kts 263°
2026-04-17 13:27 51.83047 2.88377 28923 ft 411 kts 263°
2026-04-17 13:27 51.82740 2.83772 28563 ft 412 kts 263°
2026-04-17 13:28 51.82432 2.79172 28141 ft 413 kts 263°
2026-04-17 13:28 51.82126 2.74614 27726 ft 414 kts 263°
2026-04-17 13:28 51.81809 2.69938 27299 ft 416 kts 263°
2026-04-17 13:28 51.81500 2.65309 26883 ft 417 kts 263°
2026-04-17 13:29 51.81214 2.60662 26464 ft 419 kts 263°
2026-04-17 13:29 51.80932 2.55981 26049 ft 421 kts 263°
2026-04-17 13:29 51.80651 2.51339 25640 ft 422 kts 263°
2026-04-17 13:29 51.80363 2.46610 25282 ft 419 kts 263°
2026-04-17 13:30 51.80075 2.41920 25180 ft 419 kts 263°
2026-04-17 13:30 51.79784 2.37268 25178 ft 419 kts 263°
2026-04-17 13:30 51.79493 2.32602 25175 ft 419 kts 262°
2026-04-17 13:30 51.79195 2.27907 25172 ft 419 kts 262°
2026-04-17 13:31 51.78899 2.23251 25172 ft 419 kts 262°
2026-04-17 13:31 51.78598 2.18551 25172 ft 419 kts 262°
2026-04-17 13:31 51.78297 2.13873 25168 ft 419 kts 262°
2026-04-17 13:31 51.77994 2.09203 25167 ft 419 kts 262°
2026-04-17 13:32 51.77690 2.04553 25166 ft 419 kts 262°
2026-04-17 13:32 51.77388 1.99942 25159 ft 414 kts 262°
2026-04-17 13:32 51.77090 1.95410 25158 ft 396 kts 262°
2026-04-17 13:32 51.76804 1.91092 25157 ft 378 kts 262°
2026-04-17 13:33 51.76529 1.86966 25157 ft 362 kts 262°
2026-04-17 13:33 51.76269 1.83074 25155 ft 346 kts 262°
2026-04-17 13:33 51.76013 1.79301 25149 ft 331 kts 262°
2026-04-17 13:33 51.75770 1.75711 25145 ft 315 kts 261°
2026-04-17 13:34 51.75534 1.72257 25148 ft 308 kts 261°
2026-04-17 13:34 51.75296 1.68821 25150 ft 308 kts 261°
2026-04-17 13:34 51.75058 1.65389 25150 ft 308 kts 261°
2026-04-17 13:34 51.74822 1.61980 25156 ft 308 kts 261°
2026-04-17 13:35 51.74592 1.58557 24894 ft 312 kts 262°
2026-04-17 13:35 51.74369 1.55055 24342 ft 314 kts 262°
2026-04-17 13:35 51.74149 1.51556 23839 ft 314 kts 262°
2026-04-17 13:35 51.73927 1.48065 23358 ft 314 kts 262°
2026-04-17 13:36 51.73702 1.44565 22879 ft 315 kts 262°
2026-04-17 13:36 51.73477 1.41076 22405 ft 315 kts 262°
2026-04-17 13:36 51.73250 1.37579 21930 ft 314 kts 262°
2026-04-17 13:36 51.73021 1.34058 21456 ft 314 kts 261°
2026-04-17 13:37 51.72790 1.30552 20972 ft 315 kts 261°
2026-04-17 13:37 51.72558 1.27034 20494 ft 315 kts 261°
2026-04-17 13:37 51.72326 1.23541 20018 ft 315 kts 261°
2026-04-17 13:37 51.72094 1.20039 19537 ft 315 kts 261°
2026-04-17 13:38 51.71860 1.16558 19058 ft 314 kts 261°
2026-04-17 13:38 51.71623 1.13027 18582 ft 314 kts 261°
2026-04-17 13:38 51.71387 1.09523 18100 ft 313 kts 261°
2026-04-17 13:38 51.71149 1.06039 17635 ft 313 kts 261°
2026-04-17 13:39 51.70915 1.02605 17182 ft 313 kts 261°
2026-04-17 13:39 51.70672 0.99075 16695 ft 313 kts 261°
2026-04-17 13:39 51.70434 0.95615 16207 ft 312 kts 261°
2026-04-17 13:39 51.70193 0.92135 15774 ft 310 kts 261°
2026-04-17 13:40 51.69954 0.88672 15294 ft 311 kts 261°
2026-04-17 13:40 51.69712 0.85197 14760 ft 312 kts 261°
2026-04-17 13:40 51.69472 0.81771 14309 ft 310 kts 261°
2026-04-17 13:40 51.69229 0.78300 13874 ft 308 kts 261°
2026-04-17 13:41 51.68988 0.74898 13473 ft 306 kts 261°
2026-04-17 13:41 51.68747 0.71498 13057 ft 304 kts 262°
2026-04-17 13:41 51.68507 0.68143 12649 ft 302 kts 262°
2026-04-17 13:41 51.68267 0.64764 12245 ft 299 kts 262°
2026-04-17 13:42 51.68031 0.61468 11874 ft 295 kts 262°
2026-04-17 13:42 51.67796 0.58208 11500 ft 293 kts 262°
2026-04-17 13:42 51.67559 0.54934 11137 ft 290 kts 262°
2026-04-17 13:42 51.67326 0.51738 10752 ft 287 kts 262°
2026-04-17 13:43 51.67094 0.48553 10388 ft 284 kts 262°
2026-04-17 13:43 51.66862 0.45376 10016 ft 282 kts 262°
2026-04-17 13:43 51.66633 0.42241 9646 ft 280 kts 263°
2026-04-17 13:43 51.66406 0.39164 9286 ft 278 kts 263°
2026-04-17 13:44 51.66177 0.36067 8933 ft 275 kts 263°
2026-04-17 13:44 51.65950 0.33002 8568 ft 273 kts 262°
2026-04-17 13:44 51.65726 0.29984 8200 ft 270 kts 262°
2026-04-17 13:44 51.65503 0.27000 7852 ft 267 kts 262°
2026-04-17 13:45 51.65277 0.24003 7512 ft 263 kts 262°
2026-04-17 13:45 51.65058 0.21103 7194 ft 260 kts 262°
2026-04-17 13:45 51.64845 0.18271 7162 ft 245 kts 262°
2026-04-17 13:45 51.64685 0.15620 7132 ft 235 kts 266°
2026-04-17 13:46 51.64686 0.12979 7107 ft 236 kts 271°
2026-04-17 13:46 51.64769 0.10328 7125 ft 236 kts 271°
2026-04-17 13:46 51.64858 0.07689 7134 ft 236 kts 271°
2026-04-17 13:46 51.64946 0.05046 7141 ft 236 kts 271°
2026-04-17 13:47 51.65034 0.02389 7136 ft 235 kts 271°
2026-04-17 13:47 51.65119 -0.00237 7137 ft 236 kts 271°
2026-04-17 13:47 51.65204 -0.02903 7142 ft 236 kts 271°
2026-04-17 13:47 51.65287 -0.05552 7136 ft 236 kts 271°
2026-04-17 13:48 51.65371 -0.08199 7135 ft 236 kts 271°
2026-04-17 13:48 51.65454 -0.10867 7137 ft 237 kts 271°
2026-04-17 13:48 51.65538 -0.13516 7138 ft 236 kts 271°
2026-04-17 13:48 51.65440 -0.16167 7137 ft 234 kts 250°
2026-04-17 13:49 51.64505 -0.18249 7120 ft 235 kts 218°
2026-04-17 13:49 51.63010 -0.19412 6952 ft 239 kts 204°
2026-04-17 13:49 51.61460 -0.20351 6597 ft 236 kts 204°
2026-04-17 13:49 51.59926 -0.21293 6273 ft 235 kts 204°
2026-04-17 13:50 51.58328 -0.21894 6118 ft 241 kts 180°
2026-04-17 13:50 51.56729 -0.20940 5816 ft 252 kts 144°
2026-04-17 13:50 51.55633 -0.18765 5454 ft 255 kts 126°
2026-04-17 13:50 51.54730 -0.16323 5079 ft 253 kts 125°
2026-04-17 13:51 51.53804 -0.13941 4700 ft 250 kts 129°
2026-04-17 13:51 51.52550 -0.12154 4237 ft 236 kts 164°
2026-04-17 13:51 51.50979 -0.12056 3879 ft 224 kts 204°
2026-04-17 13:51 51.49761 -0.13527 3632 ft 221 kts 229°
2026-04-17 13:52 51.48870 -0.15509 3350 ft 220 kts 241°
2026-04-17 13:52 51.48219 -0.17747 3045 ft 217 kts 246°
2026-04-17 13:52 51.47713 -0.19939 2879 ft 204 kts 250°
2026-04-17 13:52 51.47302 -0.22107 2744 ft 204 kts 252°
2026-04-17 13:53 51.46930 -0.24277 2567 ft 198 kts 253°
2026-04-17 13:53 51.46679 -0.26316 2536 ft 175 kts 259°
2026-04-17 13:53 51.46582 -0.28156 2501 ft 152 kts 264°
2026-04-17 13:53 51.46558 -0.29823 2476 ft 144 kts 264°
2026-04-17 13:54 51.46521 -0.32879 2107 ft 137 kts 263°
2026-04-17 13:54 51.46538 -0.34436 1606 ft 143 kts 267°
2026-04-17 13:55 51.46542 -0.37626 704 ft 141 kts 264°
2026-04-17 13:55 51.46519 -0.39185 467 ft 142 kts 264°
2026-04-17 13:55 51.46497 -0.42313 140 ft 133 kts 266°
2026-04-17 13:56 51.46481 -0.44659 85 ft 63 kts 268°
2026-04-17 13:56 51.46599 -0.45010 85 ft 10 kts 347°
2026-04-17 13:56 51.46610 -0.45014 85 ft 0 kts 347°
2026-04-17 13:57 51.46613 -0.45016 85 ft 1 kts 346°
2026-04-17 13:57 51.46645 -0.45046 85 ft 3 kts 312°
2026-04-17 13:58 51.46656 -0.45088 85 ft 5 kts 285°
2026-04-17 13:58 51.46663 -0.45368 85 ft 23 kts 265°
2026-04-17 13:58 51.46654 -0.45676 86 ft 32 kts 269°
2026-04-17 13:59 51.46657 -0.46365 85 ft 28 kts 269°
2026-04-17 13:59 51.46655 -0.46644 85 ft 22 kts 270°
2026-04-17 13:59 51.46654 -0.46890 85 ft 21 kts 269°
2026-04-17 14:00 51.46655 -0.47125 85 ft 19 kts 274°
2026-04-17 14:00 51.46663 -0.47286 85 ft 11 kts 295°
2026-04-17 14:00 51.46695 -0.47323 85 ft 0 kts 14°
2026-04-17 14:00 51.46816 -0.47344 86 ft 22 kts 356°
2026-04-17 14:01 51.46950 -0.47350 86 ft 12 kts 359°
2026-04-17 14:01 51.46982 -0.47406 86 ft 5 kts 268°
2026-04-17 14:01 51.46980 -0.47466 86 ft 5 kts 268°
2026-04-17 14:01 51.46980 -0.47489 86 ft 0 kts 269°
2026-04-17 14:02 51.46980 -0.47490 86 ft 0 kts 272°
2026-04-17 14:02 51.46981 -0.47498 86 ft 0 kts 281°
2026-04-17 14:02 51.46981 -0.47505 86 ft 0 kts 273°